TKJ4BR LTAC-LTCO

Flight info

Callsign TKJ4BR
Flight time 1h 6m
Altitude 37000
Route GOBIT UL614 JUPNE UT54 SIV UL615 ERZ UW94 INBAT
Aircraft A320/M-SDE3FGHIRWY/LB1

Departure

Time 2026-04-14 16:45
Airport Esenboğa International Airport (LTAC)

Arrival

Time 2026-04-14 17:51
Airport Ağrı Airport (LTCO)
Time Latitude Longitude Altitude Speed Heading
2026-04-14 16:15 40.11381 32.98845 3126 ft 0 kts 127°
2026-04-14 16:33 40.11384 32.98840 3126 ft 4 kts 126°
2026-04-14 16:33 40.11398 32.98810 3124 ft 4 kts 115°
2026-04-14 16:34 40.11407 32.98777 3123 ft 4 kts 91°
2026-04-14 16:34 40.11401 32.98750 3123 ft 2 kts 36°
2026-04-14 16:34 40.11396 32.98745 3123 ft 0 kts 35°
2026-04-14 16:37 40.11404 32.98753 3123 ft 4 kts 35°
2026-04-14 16:37 40.11437 32.98783 3123 ft 7 kts 35°
2026-04-14 16:38 40.11488 32.98829 3122 ft 10 kts 35°
2026-04-14 16:38 40.11552 32.98898 3125 ft 14 kts 44°
2026-04-14 16:38 40.11622 32.98946 3122 ft 11 kts 340°
2026-04-14 16:38 40.11683 32.98889 3125 ft 11 kts
2026-04-14 16:39 40.11747 32.98947 3128 ft 12 kts 37°
2026-04-14 16:39 40.11818 32.99015 3128 ft 14 kts 36°
2026-04-14 16:39 40.11911 32.99105 3128 ft 19 kts 36°
2026-04-14 16:39 40.12028 32.99217 3127 ft 22 kts 36°
2026-04-14 16:40 40.12166 32.99344 3124 ft 25 kts 35°
2026-04-14 16:40 40.12309 32.99481 3124 ft 27 kts 36°
2026-04-14 16:40 40.12460 32.99624 3127 ft 26 kts 36°
2026-04-14 16:40 40.12607 32.99765 3129 ft 27 kts 36°
2026-04-14 16:41 40.12761 32.99912 3128 ft 29 kts 36°
2026-04-14 16:41 40.12925 33.00071 3127 ft 30 kts 36°
2026-04-14 16:41 40.13097 33.00236 3127 ft 30 kts 36°
2026-04-14 16:41 40.13268 33.00398 3132 ft 30 kts 36°
2026-04-14 16:42 40.13439 33.00560 3133 ft 31 kts 36°
2026-04-14 16:42 40.13616 33.00728 3131 ft 33 kts 36°
2026-04-14 16:42 40.13806 33.00906 3127 ft 34 kts 36°
2026-04-14 16:42 40.13940 33.01037 3127 ft 19 kts 37°
2026-04-14 16:43 40.14055 33.01065 3132 ft 18 kts 335°
2026-04-14 16:43 40.14115 33.00928 3131 ft 19 kts 296°
2026-04-14 16:43 40.14192 33.00787 3126 ft 19 kts 305°
2026-04-14 16:43 40.14222 33.00697 3126 ft 9 kts 243°
2026-04-14 16:44 40.14154 33.00629 3122 ft 20 kts 216°
2026-04-14 16:44 40.13850 33.00338 3128 ft 86 kts 216°
2026-04-14 16:44 40.13218 32.99736 3127 ft 137 kts 216°
2026-04-14 16:45 40.11423 32.98038 3855 ft 165 kts 217°
2026-04-14 16:45 40.10493 32.97160 4502 ft 165 kts 217°
2026-04-14 16:45 40.09556 32.96275 5012 ft 170 kts 217°
2026-04-14 16:45 40.08534 32.95310 5223 ft 192 kts 218°
2026-04-14 16:46 40.07386 32.94220 5406 ft 217 kts 218°
2026-04-14 16:46 40.06098 32.92998 5708 ft 240 kts 218°
2026-04-14 16:46 40.04721 32.91696 6394 ft 248 kts 218°
2026-04-14 16:46 40.03306 32.90362 7158 ft 253 kts 218°
2026-04-14 16:47 40.01808 32.89115 7950 ft 260 kts 204°
2026-04-14 16:47 39.99990 32.88881 8634 ft 276 kts 172°
2026-04-14 16:47 39.98141 32.89885 9071 ft 298 kts 152°
2026-04-14 16:47 39.96378 32.91365 9758 ft 306 kts 147°
2026-04-14 16:48 39.94644 32.92997 10299 ft 320 kts 146°
2026-04-14 16:48 39.92799 32.94783 10568 ft 341 kts 146°
2026-04-14 16:48 39.90745 32.96496 10722 ft 361 kts 158°
2026-04-14 16:48 39.88346 32.97511 11172 ft 365 kts 174°
2026-04-14 16:49 39.85818 32.97667 11783 ft 364 kts 188°
2026-04-14 16:49 39.83264 32.97533 12440 ft 371 kts 181°
2026-04-14 16:49 39.80686 32.98101 13084 ft 382 kts 167°
2026-04-14 16:49 39.78237 32.99547 13743 ft 393 kts 150°
2026-04-14 16:50 39.76166 33.01906 14305 ft 403 kts 130°
2026-04-14 16:50 39.74752 33.05009 14817 ft 409 kts 110°
2026-04-14 16:50 39.74143 33.08617 15361 ft 411 kts 94°
2026-04-14 16:50 39.73847 33.12330 15895 ft 415 kts 93°
2026-04-14 16:51 39.73563 33.16068 16429 ft 418 kts 93°
2026-04-14 16:51 39.73273 33.19855 16979 ft 422 kts 93°
2026-04-14 16:51 39.72973 33.23662 17533 ft 427 kts 93°
2026-04-14 16:51 39.72661 33.27513 18092 ft 431 kts 93°
2026-04-14 16:52 39.72340 33.31407 18660 ft 435 kts 93°
2026-04-14 16:52 39.72019 33.35279 19173 ft 439 kts 93°
2026-04-14 16:52 39.71688 33.39236 19671 ft 443 kts 93°
2026-04-14 16:52 39.71354 33.43243 20159 ft 448 kts 93°
2026-04-14 16:53 39.71018 33.47286 20663 ft 452 kts 93°
2026-04-14 16:53 39.70678 33.51361 21151 ft 456 kts 93°
2026-04-14 16:53 39.70333 33.55468 21615 ft 460 kts 93°
2026-04-14 16:53 39.69982 33.59613 22061 ft 464 kts 93°
2026-04-14 16:54 39.69628 33.63790 22498 ft 468 kts 93°
2026-04-14 16:54 39.69271 33.68005 22921 ft 471 kts 94°
2026-04-14 16:54 39.68911 33.72255 23349 ft 475 kts 93°
2026-04-14 16:54 39.68547 33.76527 23759 ft 478 kts 93°
2026-04-14 16:55 39.68180 33.80773 24098 ft 481 kts 93°
2026-04-14 16:55 39.67803 33.85098 24430 ft 485 kts 93°
2026-04-14 16:55 39.67422 33.89468 24736 ft 488 kts 93°
2026-04-14 16:55 39.67038 33.93862 25046 ft 492 kts 94°
2026-04-14 16:56 39.66650 33.98293 25378 ft 495 kts 93°
2026-04-14 16:56 39.66259 34.02735 25685 ft 499 kts 93°
2026-04-14 16:56 39.65860 34.07225 25992 ft 502 kts 93°
2026-04-14 16:56 39.65461 34.11678 26294 ft 505 kts 93°
2026-04-14 16:57 39.65053 34.16215 26593 ft 509 kts 93°
2026-04-14 16:57 39.64641 34.20794 26903 ft 512 kts 93°
2026-04-14 16:57 39.64224 34.25404 27210 ft 516 kts 93°
2026-04-14 16:57 39.63803 34.30038 27505 ft 519 kts 93°
2026-04-14 16:58 39.63379 34.34702 27777 ft 523 kts 93°
2026-04-14 16:58 39.63057 34.39416 28048 ft 524 kts 87°
2026-04-14 16:58 39.63170 34.44120 28322 ft 521 kts 78°
2026-04-14 16:58 39.63599 34.48786 28664 ft 521 kts 77°
2026-04-14 16:59 39.64035 34.53455 29089 ft 521 kts 77°
2026-04-14 16:59 39.64463 34.58131 29493 ft 522 kts 77°
2026-04-14 16:59 39.64878 34.62750 29922 ft 523 kts 77°
2026-04-14 16:59 39.65297 34.67430 30349 ft 523 kts 77°
2026-04-14 17:00 39.65716 34.72120 30715 ft 523 kts 77°
2026-04-14 17:00 39.66135 34.76805 31096 ft 523 kts 77°
2026-04-14 17:00 39.66554 34.81501 31460 ft 523 kts 77°
2026-04-14 17:00 39.66972 34.86182 31794 ft 524 kts 77°
2026-04-14 17:01 39.67394 34.90889 32134 ft 525 kts 77°
2026-04-14 17:01 39.67671 34.94003 32376 ft 525 kts 77°
2026-04-14 17:01 39.68219 35.00241 32861 ft 526 kts 77°
2026-04-14 17:01 39.68626 35.04954 33245 ft 526 kts 77°
2026-04-14 17:02 39.69032 35.09686 33599 ft 527 kts 77°
2026-04-14 17:02 39.69438 35.14413 33967 ft 527 kts 77°
2026-04-14 17:02 39.69845 35.19154 34285 ft 529 kts 77°
2026-04-14 17:02 39.70115 35.22292 34481 ft 529 kts 77°
2026-04-14 17:03 39.70521 35.27033 34831 ft 527 kts 77°
2026-04-14 17:03 39.70923 35.31757 35215 ft 525 kts 77°
2026-04-14 17:03 39.71322 35.36453 35621 ft 522 kts 78°
2026-04-14 17:03 39.71718 35.41120 36045 ft 518 kts 78°
2026-04-14 17:04 39.72231 35.47254 36592 ft 514 kts 78°
2026-04-14 17:04 39.72612 35.51839 37041 ft 510 kts 78°
2026-04-14 17:04 39.72868 35.54935 37176 ft 508 kts 79°
2026-04-14 17:04 39.73240 35.59439 37240 ft 511 kts 78°
2026-04-14 17:05 39.73995 35.68663 37243 ft 514 kts 78°
2026-04-14 17:05 39.74734 35.77896 37265 ft 514 kts 79°
2026-04-14 17:06 39.75473 35.87134 37263 ft 514 kts 78°
2026-04-14 17:06 39.76201 35.96325 37298 ft 514 kts 79°
2026-04-14 17:07 39.76917 36.05551 37307 ft 513 kts 79°
2026-04-14 17:07 39.77630 36.14758 37314 ft 512 kts 79°
2026-04-14 17:08 39.78330 36.23967 37311 ft 512 kts 80°
2026-04-14 17:08 39.78686 36.33227 37314 ft 514 kts 85°
2026-04-14 17:09 39.78671 36.42464 37295 ft 513 kts 86°
2026-04-14 17:09 39.78627 36.51689 37302 ft 509 kts 85°
2026-04-14 17:10 39.78693 36.60903 37298 ft 509 kts 84°
2026-04-14 17:10 39.78804 36.70104 37295 ft 509 kts 84°
2026-04-14 17:11 39.78898 36.79261 37293 ft 510 kts 85°
2026-04-14 17:11 39.78961 36.88478 37310 ft 509 kts 82°
2026-04-14 17:12 39.79617 36.97564 37293 ft 503 kts 78°
2026-04-14 17:12 39.80362 37.06607 37291 ft 503 kts 78°
2026-04-14 17:13 39.81102 37.15590 37306 ft 503 kts 78°
2026-04-14 17:13 39.81832 37.24653 37309 ft 503 kts 79°
2026-04-14 17:14 39.82549 37.33712 37315 ft 504 kts 79°
2026-04-14 17:14 39.83254 37.42760 37320 ft 502 kts 79°
2026-04-14 17:15 39.83962 37.51812 37329 ft 503 kts 79°
2026-04-14 17:15 39.84652 37.60805 37338 ft 503 kts 79°
2026-04-14 17:16 39.85336 37.69851 37339 ft 503 kts 79°
2026-04-14 17:16 39.86015 37.78916 37361 ft 503 kts 79°
2026-04-14 17:17 39.86680 37.87966 37346 ft 502 kts 79°
2026-04-14 17:17 39.87329 37.96968 37343 ft 502 kts 79°
2026-04-14 17:18 39.87983 38.06021 37341 ft 502 kts 79°
2026-04-14 17:18 39.88642 38.15065 37339 ft 502 kts 79°
2026-04-14 17:19 39.89300 38.24102 37335 ft 502 kts 79°
2026-04-14 17:19 39.89938 38.33095 37325 ft 502 kts 80°
2026-04-14 17:20 39.90569 38.42156 37327 ft 502 kts 80°
2026-04-14 17:20 39.91204 38.51211 37317 ft 502 kts 80°
2026-04-14 17:21 39.91824 38.60265 37317 ft 502 kts 80°
2026-04-14 17:21 39.92425 38.69262 37291 ft 500 kts 79°
2026-04-14 17:22 39.93026 38.78274 37289 ft 499 kts 79°
2026-04-14 17:22 39.93625 38.87279 37292 ft 500 kts 79°
2026-04-14 17:23 39.94021 38.96348 37293 ft 503 kts 83°
2026-04-14 17:23 39.94086 39.05419 37293 ft 504 kts 85°
2026-04-14 17:24 39.94109 39.14549 37323 ft 504 kts 84°
2026-04-14 17:24 39.94235 39.23684 37300 ft 503 kts 83°
2026-04-14 17:25 39.94407 39.32787 37295 ft 503 kts 83°
2026-04-14 17:25 39.94560 39.41900 37283 ft 503 kts 84°
2026-04-14 17:26 39.94679 39.50959 37279 ft 503 kts 84°
2026-04-14 17:26 39.94787 39.60080 37311 ft 503 kts 84°
2026-04-14 17:27 39.94892 39.69204 37298 ft 503 kts 84°
2026-04-14 17:27 39.95003 39.78326 37285 ft 503 kts 84°
2026-04-14 17:28 39.95107 39.87377 37288 ft 503 kts 84°
2026-04-14 17:28 39.95193 39.96495 37283 ft 503 kts 84°
2026-04-14 17:29 39.95265 40.05616 37285 ft 503 kts 84°
2026-04-14 17:29 39.95338 40.14741 37280 ft 503 kts 84°
2026-04-14 17:30 39.95411 40.23859 37262 ft 504 kts 84°
2026-04-14 17:30 39.95470 40.32936 37269 ft 504 kts 84°
2026-04-14 17:31 39.95518 40.42081 37278 ft 505 kts 85°
2026-04-14 17:31 39.95564 40.51238 37276 ft 506 kts 85°
2026-04-14 17:32 39.95596 40.60426 37310 ft 507 kts 85°
2026-04-14 17:32 39.95626 40.69562 37277 ft 508 kts 85°
2026-04-14 17:33 39.95656 40.78789 37267 ft 509 kts 85°
2026-04-14 17:34 39.95684 40.92633 37265 ft 510 kts 85°
2026-04-14 17:34 39.95686 40.97274 37140 ft 512 kts 85°
2026-04-14 17:34 39.95686 41.01910 36878 ft 512 kts 85°
2026-04-14 17:34 39.95686 41.06544 36653 ft 512 kts 85°
2026-04-14 17:35 39.95685 41.11139 36397 ft 515 kts 85°
2026-04-14 17:35 39.95680 41.15812 36155 ft 516 kts 85°
2026-04-14 17:35 39.95556 41.20503 35421 ft 524 kts 92°
2026-04-14 17:35 39.94961 41.25232 34605 ft 533 kts 98°
2026-04-14 17:36 39.94181 41.29982 33666 ft 539 kts 98°
2026-04-14 17:36 39.93393 41.34779 32733 ft 543 kts 98°
2026-04-14 17:36 39.92600 41.39613 31746 ft 548 kts 97°
2026-04-14 17:36 39.91799 41.44482 30813 ft 550 kts 97°
2026-04-14 17:37 39.90993 41.49387 29570 ft 557 kts 97°
2026-04-14 17:37 39.90192 41.54248 28643 ft 555 kts 97°
2026-04-14 17:37 39.89384 41.59111 28054 ft 546 kts 97°
2026-04-14 17:37 39.88577 41.63930 27313 ft 541 kts 97°
2026-04-14 17:38 39.87779 41.68688 26618 ft 536 kts 97°
2026-04-14 17:38 39.86989 41.73400 25918 ft 530 kts 97°
2026-04-14 17:38 39.86209 41.78067 25248 ft 525 kts 98°
2026-04-14 17:38 39.85441 41.82669 24687 ft 515 kts 98°
2026-04-14 17:39 39.84693 41.87132 23992 ft 509 kts 98°
2026-04-14 17:39 39.83940 41.91596 23352 ft 501 kts 98°
2026-04-14 17:39 39.83199 41.95967 22512 ft 488 kts 98°
2026-04-14 17:39 39.82480 42.00197 21946 ft 469 kts 98°
2026-04-14 17:40 39.81782 42.04291 21370 ft 460 kts 98°
2026-04-14 17:40 39.81095 42.08310 20815 ft 450 kts 99°
2026-04-14 17:40 39.80423 42.12241 20285 ft 441 kts 98°
2026-04-14 17:40 39.79760 42.16108 19772 ft 434 kts 98°
2026-04-14 17:41 39.79109 42.19903 19262 ft 427 kts 98°
2026-04-14 17:41 39.78475 42.23601 18782 ft 421 kts 99°
2026-04-14 17:41 39.77843 42.27286 18218 ft 415 kts 99°
2026-04-14 17:41 39.77220 42.30909 17710 ft 406 kts 99°
2026-04-14 17:42 39.76608 42.34452 17193 ft 399 kts 100°
2026-04-14 17:42 39.76005 42.37946 16473 ft 398 kts 100°
2026-04-14 17:42 39.75402 42.41460 15899 ft 398 kts 101°
2026-04-14 17:42 39.74799 42.44963 15350 ft 397 kts 101°
2026-04-14 17:43 39.74197 42.48433 14790 ft 389 kts 102°
2026-04-14 17:43 39.73601 42.51835 14240 ft 383 kts 103°
2026-04-14 17:43 39.73015 42.55160 13643 ft 383 kts 103°
2026-04-14 17:43 39.72421 42.58528 13052 ft 382 kts 103°
2026-04-14 17:44 39.71827 42.61889 12474 ft 380 kts 103°
2026-04-14 17:44 39.71238 42.65227 11895 ft 379 kts 102°
2026-04-14 17:44 39.70650 42.68559 11294 ft 378 kts 102°
2026-04-14 17:44 39.70068 42.71861 10742 ft 371 kts 102°
2026-04-14 17:45 39.69513 42.75006 10562 ft 344 kts 102°
2026-04-14 17:45 39.69143 42.77907 10387 ft 318 kts 89°
2026-04-14 17:45 39.69378 42.80662 10018 ft 299 kts 70°
2026-04-14 17:45 39.70184 42.83080 9930 ft 288 kts 54°
2026-04-14 17:46 39.71419 42.85077 9786 ft 278 kts 38°
2026-04-14 17:46 39.72931 42.86536 9655 ft 266 kts 30°
2026-04-14 17:46 39.74409 42.87971 9370 ft 265 kts 37°
2026-04-14 17:46 39.75727 42.89609 9032 ft 259 kts 44°
2026-04-14 17:47 39.76842 42.91404 8701 ft 251 kts 52°
2026-04-14 17:47 39.77751 42.93294 8376 ft 243 kts 59°
2026-04-14 17:47 39.78412 42.95226 8063 ft 234 kts 75°
2026-04-14 17:47 39.78225 42.97249 7694 ft 225 kts 120°
2026-04-14 17:48 39.77127 42.98483 7484 ft 201 kts 162°
2026-04-14 17:48 39.75828 42.98942 7186 ft 188 kts 168°
2026-04-14 17:48 39.74631 42.99361 6954 ft 167 kts 168°
2026-04-14 17:48 39.73548 42.99745 6723 ft 158 kts 167°
2026-04-14 17:49 39.72495 43.00113 6625 ft 156 kts 168°
2026-04-14 17:49 39.71446 43.00476 6384 ft 155 kts 167°
2026-04-14 17:49 39.70410 43.00862 6105 ft 155 kts 168°
2026-04-14 17:49 39.69385 43.01229 5923 ft 154 kts 168°
2026-04-14 17:50 39.68322 43.01609 5679 ft 158 kts 167°
2026-04-14 17:50 39.67260 43.01976 5487 ft 162 kts 167°
2026-04-14 17:50 39.66227 43.02339 5409 ft 136 kts 163°
2026-04-14 17:50 39.65596 43.02566 5400 ft 61 kts 165°
2026-04-14 17:51 39.65218 43.02702 5409 ft 53 kts 165°
2026-04-14 17:51 39.64884 43.02814 5396 ft 40 kts 166°
2026-04-14 17:51 39.64696 43.02885 5396 ft 26 kts 160°
2026-04-14 17:51 39.64583 43.02941 5402 ft 9 kts 169°
2026-04-14 17:52 39.64569 43.02889 5409 ft 7 kts 307°
2026-04-14 17:52 39.64610 43.02886 5401 ft 6 kts 11°
2026-04-14 17:52 39.64661 43.02897 5403 ft 9 kts
2026-04-14 17:52 39.64733 43.02878 5404 ft 13 kts 344°
2026-04-14 17:53 39.64835 43.02842 5404 ft 17 kts 345°
2026-04-14 17:53 39.64964 43.02796 5405 ft 21 kts 345°
2026-04-14 17:53 39.65119 43.02740 5399 ft 25 kts 344°
2026-04-14 17:53 39.65293 43.02675 5404 ft 26 kts 344°
2026-04-14 17:54 39.65453 43.02620 5402 ft 22 kts 346°
2026-04-14 17:54 39.65554 43.02576 5406 ft 10 kts 313°
2026-04-14 17:54 39.65547 43.02487 5395 ft 11 kts 255°
2026-04-14 17:54 39.65528 43.02398 5403 ft 10 kts 257°
2026-04-14 17:55 39.65514 43.02318 5398 ft 8 kts 257°
2026-04-14 17:55 39.65491 43.02286 5406 ft 4 kts 188°
2026-04-14 17:55 39.65462 43.02276 5411 ft 4 kts 218°
2026-04-14 17:55 39.65453 43.02241 5400 ft 4 kts 255°
2026-04-14 17:56 39.65448 43.02217 5403 ft 0 kts 254°